GFSWCAN_sfc_temp_021.txt.gz
Temp
49 50 50 51 51 51 52 52 51 51 52 52 52 51 51 51 51 46 43 49 43 34 40 42 43 38 38 37 32 27 31 29 29 25 24 25 23 28 24 29 27 24 21 20 19 15 12 35 32 25 34 37 36 36
51 50 49 50 50 51 51 51 52 52 52 52 51 52 52 51 51 50 40 43 44 34 36 44 47 49 48 46 40 31 35 30 34 29 29 29 24 26 24 18 33 20 27 24 25 25 37 37 35 39 40 35 37 37
50 50 50 50 50 49 49 50 51 51 51 51 51 51 51 51 50 50 45 42 39 33 33 34 34 45 48 49 51 35 36 40 36 42 33 30 23 29 20 22 25 31 36 27 26 31 34 37 40 41 41 39 40 40
48 48 49 49 49 50 50 50 49 50 50 50 50 50 50 51 50 49 43 45 41 35 29 34 42 41 49 48 46 47 44 42 41 38 28 27 24 34 26 29 28 32 33 28 27 32 35 37 38 39 39 40 39 39
47 48 48 48 48 49 49 49 50 49 49 49 50 50 50 50 50 47 46 43 44 35 30 33 34 42 44 44 42 43 41 38 32 28 27 25 31 30 29 31 26 34 31 27 25 35 34 36 40 41 38 38 38 36
46 46 47 47 48 48 48 48 48 49 49 48 48 49 49 48 49 42 33 41 42 40 31 26 41 37 41 42 40 39 39 37 33 30 28 30 36 30 22 21 32 36 38 38 33 39 38 39 40 41 38 36 33 28
45 45 46 46 46 47 47 48 48 48 48 48 48 48 49 49 45 34 34 40 44 41 31 27 27 33 36 37 37 37 39 34 33 31 29 31 33 32 25 20 34 37 38 39 40 38 35 37 35 37 31 28 23 22
44 45 45 45 45 46 46 46 47 47 47 47 48 48 48 48 46 38 42 44 44 36 32 26 26 27 33 28 28 34 30 30 30 30 32 29 31 28 22 30 34 36 37 37 38 38 35 33 29 23 23 19 16 17
44 45 45 45 45 45 45 45 45 46 46 46 46 47 44 39 33 36 45 45 43 36 28 27 24 23 30 31 32 29 31 24 34 27 29 30 25 21 29 32 34 36 34 34 31 21 20 20 22 19 17 14 13 14
44 44 43 44 45 44 44 44 44 45 45 45 42 33 31 34 45 43 37 32 31 31 31 27 33 26 30 27 24 27 27 25 21 27 32 24 23 32 35 35 31 23 22 21 18 17 13 14 15 15 12 12 11 11
43 43 43 43 43 43 44 45 44 44 45 35 32 31 38 43 36 32 28 27 29 25 28 30 30 24 29 23 23 29 24 25 18 24 22 21 21 30 33 26 18 17 15 11 12 12 11 10 12 11 10 8 7 6
42 42 42 42 43 44 44 44 44 40 35 36 35 35 34 32 30 25 24 27 25 24 26 25 27 30 26 30 25 24 21 21 16 20 19 16 26 21 16 12 10 10 9 5 6 6 6 7 5 3 3 3 2 2
42 42 42 43 43 43 44 44 44 43 41 34 31 29 28 28 20 18 17 20 21 22 22 23 22 28 26 28 25 23 18 17 19 16 15 22 23 9 6 3 1 2 1 1 0 1 0 -0 -1 -2 -2 -1 -2 -3
40 41 41 41 42 43 43 44 43 41 33 28 25 20 21 20 22 24 25 27 28 28 23 26 23 23 26 22 24 18 19 16 13 11 15 25 19 4 2 1 -2 -4 -4 -2 -3 -4 -4 -4 -4 -4 -5 -5 -6 -7
40 41 41 41 42 42 43 43 43 38 31 25 25 18 20 22 18 14 11 19 22 27 24 21 21 25 21 20 22 19 11 11 14 16 23 15 2 -2 -3 -3 -4 -6 -6 -6 -6 -7 -6 -6 -6 -7 -6 -8 -8 -10
39 40 38 42 42 42 42 41 38 34 30 26 23 17 13 19 16 12 12 18 15 24 25 25 20 18 17 19 16 14 12 10 19 19 8 1 -3 -2 -4 -5 -7 -7 -8 -7 -8 -8 -8 -10 -10 -9 -12 -12 -11 -9
35 29 35 37 39 39 38 34 30 22 20 17 14 11 14 15 15 16 16 16 18 22 21 20 16 15 21 15 14 19 16 22 11 3 3 1 -3 -6 -8 -8 -10 -11 -11 -11 -12 -12 -11 -10 -15 -14 -12 -4 -7 -4
28 31 36 35 31 28 20 19 20 18 10 8 12 7 6 5 8 9 10 15 18 19 19 18 21 15 14 12 15 19 7 -3 -1 0 -1 -5 -8 -9 -8 -7 -12 -12 -11 -13 -14 -14 -15 -15 -9 -4 -7 -3 -4 -3
31 30 34 34 30 22 17 13 13 10 3 2 4 5 4 3 5 5 7 12 13 14 18 18 16 14 15 16 11 3 -0 1 -2 -3 -5 -9 -7 -12 -13 -13 -12 -11 -13 -10 -8 -6 -6 -9 -7 -5 -3 -2 -2 0
30 31 30 28 28 19 11 8 12 8 4 1 3 2 1 1 1 3 6 8 12 14 14 14 15 6 6 -1 -4 -0 -0 -2 -3 -4 -5 -6 -7 -13 -9 -8 -5 -8 -7 -8 -8 -8 -4 -3 -3 -3 -3 -2 -3 -3
24 24 25 20 14 11 7 6 3 2 1 1 1 2 0 1 -1 1 4 3 9 10 9 -3 -5 -10 -13 -12 -11 -5 -5 -1 -2 -0 -1 -6 -7 -5 -8 -8 -8 -6 -5 -6 -5 -5 -5 -5 -4 -3 -4 -3 -3 -2
18 23 18 19 10 5 4 4 3 2 1 -3 -0 0 -2 -1 -3 -4 -4 4 0 -8 -9 -8 -8 -9 -9 -9 -12 -14 -14 -10 -10 -9 -8 -7 -9 -8 -7 -6 -6 -6 -6 -6 -6 -6 -5 -4 -3 -3 -4 -5 -4 -3
16 17 11 9 6 3 -4 4 -1 -2 -2 -3 -3 -1 -4 -5 -6 -3 -0 -6 -9 -14 -17 -16 -17 -18 -13 -18 -17 -18 -18 -12 -10 -9 -8 -7 -6 -6 -5 -6 -5 -7 -7 -5 -5 -5 -5 -4 -4 -4 -4 -4 -5 -4
7 -3 -5 -4 -2 -5 -3 -5 -1 -3 -2 -3 -1 -4 -6 -7 -8 -2 -1 -7 -11 -12 -13 -15 -13 -12 -13 -13 -11 -12 -14 -14 -11 -12 -11 -8 -7 -7 -5 -5 -5 -5 -4 -4 -5 -4 -4 -5 -5 -4 -5 -6 -5 -6
4 -14 -11 -14 -10 -7 -8 -7 -6 -3 -7 -10 -7 -7 -10 -16 -4 -5 -6 -7 -9 -11 -13 -17 -15 -13 -10 -12 -13 -13 -24 -13 -8 -8 -9 -8 -5 -6 -6 -4 -4 -3 -3 -6 -6 -5 -5 -5 -5 -6 -7 -7 -8 -8
-18 -23 -18 -20 -14 -12 -15 -9 -12 -11 -10 -8 -13 -16 -17 -10 -7 -10 -10 -10 -11 -13 -14 -15 -12 -12 -12 -10 -9 -10 -9 -14 -11 -7 -6 -7 -7 -4 -4 -4 -5 -3 -2 -3 -4 -6 -6 -6 -7 -8 -8 -7 -7 -9
-19 -21 -20 -23 -20 -19 -16 -17 -17 -13 -13 -13 -15 -14 -13 -14 -13 -11 -9 -11 -11 -12 -13 -11 -10 -8 -6 -9 -8 -9 -9 -10 -8 -4 -3 -3 -2 -2 -3 -5 -5 -2 -2 -4 -5 -6 -7 -8 -8 -8 -9 -8 -7 -8
-24 -26 -25 -22 -22 -24 -22 -22 -18 -19 -18 -20 -21 -16 -15 -14 -14 -11 -10 -10 -14 -15 -15 -15 -12 -9 -8 -6 -5 -5 -5 -5 -4 -4 -3 -4 -4 -4 -4 -4 -3 2 -3 -4 -5 -6 -8 -8 -9 -8 -9 -9 -8 -7
-23 -26 -27 -25 -24 -20 -24 -22 -21 -23 -25 -23 -17 -13 -14 -12 -13 -12 -10 -12 -13 -12 -12 -11 -10 -9 -6 -4 -3 -2 -3 -4 -4 -5 -5 -4 -4 -4 -7 -7 -7 -7 -7 -7 -4 -1 -4 -7 -7 -8 -8 -8 -8 -8
-25 -31 -18 -17 -16 -18 -24 -29 -26 -30 -30 -30 -30 -22 -16 -12 -11 -14 -15 -13 -10 -11 -11 -9 -6 -7 -5 -4 -4 -3 -3 -4 -5 -6 -9 -10 -9 -10 -13 -11 -8 -7 -7 -9 -9 -8 -5 -6 -10 -15 -13 -12 -12 -12
-32 -30 -23 -20 -18 -23 -29 -35 -36 -37 -35 -32 -36 -28 -19 -19 -15 -13 -14 -15 -16 -13 -10 -8 -8 -7 -6 -5 -5 -5 -4 -9 -19 -19 -17 -15 -12 -11 -9 -7 -6 -8 -13 -14 -14 -15 -14 -14 -15 -16 -16 -16 -16 -15
-23 -28 -26 -23 -24 -31 -35 -32 -31 -27 -27 -23 -21 -26 -20 -17 -9 -7 -9 -10 -9 -9 -8 -7 -7 -5 -7 -8 -9 -10 -12 -15 -16 -13 -14 -8 -7 -6 -6 -6 -10 -14 -15 -14 -14 -15 -16 -18 -16 -15 -15 -15 -15 -15
-24 -25 -23 -21 -17 -17 -23 -25 -23 -25 -26 -21 -21 -25 -23 -20 -13 -9 -9 -13 -13 -13 -11 -10 -11 -12 -12 -13 -12 -11 -9 -8 -7 -1 0 1 0 0 -1 -4 -7 -10 -12 -12 -11 -12 -14 -15 -16 -16 -16 -16 -16 -15

GFSWCAN_sfc_temp_024.txt.gz
Temp
49 50 50 51 51 51 52 52 51 51 51 50 51 51 51 52 51 47 42 45 39 31 35 38 40 34 34 31 23 22 24 23 22 16 16 22 14 22 19 24 22 17 9 6 6 4 9 29 27 20 26 30 29 29
50 49 50 49 50 50 51 51 51 51 51 51 51 52 51 51 51 50 39 45 45 35 32 39 43 45 42 41 32 25 27 22 28 22 20 20 12 17 15 6 27 14 21 12 18 15 30 31 30 32 33 27 29 30
50 50 50 51 50 49 50 50 50 50 51 51 51 51 51 51 51 49 42 41 39 32 33 32 32 41 45 44 46 28 28 34 32 34 26 23 15 22 10 15 18 24 29 23 19 27 30 33 36 35 35 33 33 33
48 49 50 50 50 50 49 49 49 49 49 50 50 50 51 50 51 50 42 42 39 34 28 29 39 37 46 45 43 42 40 38 37 35 27 24 17 29 23 25 22 27 26 22 24 30 32 34 34 35 36 36 34 33
47 48 48 48 48 49 49 49 50 50 49 49 49 49 50 50 50 47 45 43 43 36 28 26 30 36 41 42 40 41 38 34 31 27 26 22 25 27 28 26 23 31 28 25 22 31 31 33 34 34 33 32 32 31
47 47 47 47 48 48 48 48 48 49 49 49 49 49 49 49 49 42 33 42 43 41 31 26 34 29 35 39 38 36 36 35 33 30 26 29 33 28 22 20 30 33 34 34 32 37 36 35 33 34 32 32 31 28
46 47 47 47 46 47 47 48 48 48 48 48 49 49 49 49 44 35 33 38 44 42 31 26 26 29 34 33 30 32 34 34 33 31 28 29 28 30 24 20 30 31 33 34 37 36 31 34 32 31 30 25 22 20
46 45 45 45 45 46 46 47 47 47 47 47 47 48 48 48 46 38 41 43 43 35 31 25 25 20 29 28 27 34 30 32 30 29 27 27 29 29 21 29 31 33 34 35 35 34 31 28 25 21 20 17 13 15
44 44 44 44 45 45 45 45 45 45 45 46 46 47 42 39 34 35 46 45 41 35 27 26 21 17 27 26 28 28 31 23 29 24 26 26 23 19 26 29 31 33 32 32 22 17 16 17 18 16 15 12 11 13
44 44 44 45 45 45 45 44 44 45 44 45 40 32 30 34 45 43 37 33 31 31 30 26 23 21 27 23 24 23 24 20 16 22 27 21 21 30 32 33 32 24 21 21 14 12 8 9 13 12 10 10 10 10
43 44 44 44 43 43 44 44 44 44 43 35 31 30 34 42 36 32 28 27 28 25 28 26 27 18 24 18 21 28 20 19 15 14 17 9 11 27 31 31 19 19 16 11 11 11 9 8 9 8 7 6 5 4
42 43 43 43 43 43 43 44 44 39 35 35 34 35 33 31 28 24 23 23 24 21 22 20 24 30 24 27 23 23 20 21 15 13 15 6 18 24 14 10 9 10 7 3 4 5 7 7 4 2 0 -0 -1 -1
42 42 42 42 42 43 43 43 44 43 41 34 31 28 26 26 20 19 16 13 10 17 19 16 20 25 25 26 23 22 17 16 18 15 8 11 16 6 2 1 -2 -1 -1 -0 -1 -1 -2 -2 -3 -6 -7 -7 -8 -9
40 40 41 41 42 42 43 43 44 41 33 26 23 17 20 18 19 19 15 14 18 19 20 24 21 19 23 21 23 17 19 14 11 6 4 11 13 3 -2 -4 -5 -7 -3 -2 -5 -7 -7 -7 -7 -9 -11 -12 -13 -13
39 40 41 41 41 42 43 42 43 38 30 23 23 15 18 15 10 5 6 13 15 20 24 21 21 24 19 19 22 17 11 9 7 6 11 7 -1 -4 -6 -8 -9 -9 -10 -11 -10 -10 -9 -11 -13 -15 -16 -17 -18 -17
38 38 33 39 41 42 42 41 36 33 29 24 23 17 8 9 8 6 6 10 14 21 21 23 20 17 17 19 15 12 10 4 8 10 0 -3 -9 -10 -10 -10 -11 -11 -12 -15 -16 -15 -13 -15 -17 -19 -22 -22 -20 -20
35 28 35 37 38 40 40 34 31 26 23 20 12 2 9 16 17 11 9 14 17 19 16 18 15 14 19 15 14 14 7 7 -2 -4 -3 -6 -9 -12 -14 -14 -18 -19 -20 -20 -21 -21 -21 -21 -25 -25 -22 -19 -20 -16
22 29 35 37 32 28 19 19 21 19 11 7 10 3 3 3 5 8 8 14 16 16 17 17 18 13 12 10 10 7 -0 -5 -2 -3 -6 -10 -14 -14 -13 -16 -20 -20 -20 -21 -23 -24 -25 -25 -23 -19 -20 -17 -17 -13
29 30 32 32 29 21 16 12 12 10 3 1 3 4 0 -0 3 4 5 10 13 14 14 17 16 14 14 9 6 1 0 -2 -5 -5 -9 -11 -13 -14 -16 -18 -18 -18 -14 -16 -22 -21 -20 -21 -19 -17 -15 -14 -14 -12
30 31 30 27 27 19 11 6 12 8 1 1 3 0 2 -0 -3 -2 4 8 11 13 13 12 7 -1 -2 -6 -8 -4 -3 -2 -3 -6 -9 -9 -12 -17 -16 -17 -15 -13 -14 -20 -23 -16 -19 -17 -16 -16 -17 -14 -13 -8
23 23 25 19 13 10 7 5 -1 0 -0 -3 -2 1 -2 -0 -4 1 3 2 9 4 3 -6 -10 -11 -11 -12 -10 -5 -7 -2 -6 -6 -7 -9 -9 -12 -18 -19 -19 -19 -18 -20 -19 -18 -17 -19 -18 -17 -16 -12 -8 -4
17 24 17 18 9 5 2 3 1 -1 -4 -9 -6 -6 -11 -10 -10 -10 -4 4 -4 -13 -12 -10 -10 -11 -12 -16 -16 -16 -15 -11 -9 -6 -7 -8 -11 -15 -19 -16 -18 -21 -21 -21 -20 -21 -20 -17 -15 -14 -9 -7 -5 -4
17 18 11 8 6 2 -5 1 -5 -3 -5 -9 -10 -8 -10 -14 -12 -4 -3 -10 -15 -16 -21 -19 -18 -17 -15 -16 -15 -15 -14 -12 -13 -12 -16 -15 -21 -19 -18 -21 -20 -21 -21 -20 -18 -18 -15 -9 -9 -6 -6 -5 -6 -5
8 -3 -4 -5 -2 -8 -6 -9 -2 -7 -7 -10 -5 -8 -13 -12 -8 -2 -6 -15 -19 -15 -16 -18 -14 -13 -14 -14 -13 -14 -13 -13 -18 -18 -20 -22 -21 -22 -21 -21 -21 -21 -19 -17 -13 -12 -10 -8 -5 -6 -6 -8 -9 -9
2 -15 -12 -17 -10 -9 -7 -6 -5 -4 -10 -11 -7 -6 -14 -16 -6 -5 -8 -12 -10 -11 -13 -14 -12 -10 -10 -11 -11 -15 -23 -21 -18 -23 -23 -24 -22 -21 -20 -19 -17 -13 -8 -10 -10 -8 -8 -8 -8 -8 -9 -11 -11 -11
-19 -23 -25 -28 -20 -17 -14 -10 -13 -14 -11 -10 -14 -15 -17 -12 -10 -17 -17 -16 -17 -16 -16 -17 -18 -18 -18 -18 -19 -21 -22 -27 -25 -21 -21 -22 -20 -18 -15 -13 -9 -8 -5 -7 -8 -10 -10 -8 -10 -10 -10 -10 -8 -10
-20 -27 -27 -27 -25 -24 -24 -23 -17 -14 -15 -17 -18 -16 -15 -17 -19 -18 -17 -17 -20 -24 -22 -22 -23 -21 -21 -23 -21 -23 -23 -23 -20 -17 -17 -16 -12 -10 -10 -10 -9 -8 -8 -8 -9 -9 -10 -10 -9 -10 -10 -10 -11 -11
-28 -30 -30 -28 -29 -31 -31 -29 -26 -26 -24 -23 -27 -23 -21 -22 -23 -23 -20 -18 -23 -24 -24 -25 -24 -23 -21 -18 -18 -17 -16 -14 -12 -11 -12 -10 -8 -9 -10 -10 -9 2 -7 -9 -8 -8 -10 -10 -11 -11 -11 -10 -8 -9
-31 -30 -30 -29 -31 -28 -31 -31 -31 -30 -26 -28 -25 -20 -23 -21 -24 -22 -18 -16 -18 -19 -21 -21 -19 -18 -12 -7 -5 -6 -6 -7 -8 -8 -9 -9 -8 -9 -13 -14 -14 -14 -13 -13 -5 -1 -7 -8 -8 -9 -8 -8 -8 -13
-26 -28 -21 -17 -17 -22 -28 -34 -34 -37 -31 -29 -29 -23 -18 -15 -13 -13 -15 -15 -15 -16 -17 -14 -10 -8 -7 -6 -7 -6 -6 -7 -7 -8 -10 -12 -13 -17 -19 -17 -15 -13 -11 -12 -10 -10 -6 -11 -13 -19 -17 -17 -18 -17
-35 -37 -30 -27 -24 -28 -32 -35 -33 -33 -32 -29 -31 -26 -20 -19 -15 -12 -12 -13 -16 -14 -10 -8 -8 -8 -7 -7 -8 -7 -8 -10 -12 -12 -13 -17 -21 -20 -16 -13 -11 -14 -15 -15 -15 -18 -17 -20 -23 -21 -21 -19 -18 -17
-24 -26 -27 -25 -29 -38 -44 -42 -41 -34 -27 -22 -22 -23 -19 -18 -14 -12 -10 -11 -9 -10 -8 -8 -8 -10 -9 -9 -9 -9 -8 -10 -10 -9 -12 -12 -12 -9 -7 -6 -7 -9 -12 -13 -14 -15 -17 -19 -17 -18 -17 -18 -18 -19
-28 -29 -26 -22 -20 -21 -23 -24 -24 -26 -26 -21 -23 -24 -23 -20 -16 -11 -6 -10 -13 -14 -14 -13 -12 -11 -11 -10 -9 -9 -8 -9 -8 -1 -1 1 -0 0 -1 -2 -3 -6 -10 -11 -12 -12 -14 -16 -17 -18 -18 -18 -18 -17

GFSWCAN_sfc_temp_030.txt.gz
Temp
50 50 51 51 51 52 52 51 51 52 51 52 52 51 51 52 51 44 39 41 36 28 32 35 37 32 31 30 25 25 28 27 25 22 18 21 13 21 16 20 17 15 11 10 9 9 6 27 26 21 27 28 28 26
50 50 51 51 50 50 51 52 51 51 51 51 51 52 52 51 51 47 39 41 40 30 30 36 36 37 39 38 29 22 27 22 27 20 15 18 10 10 13 10 25 16 20 12 16 15 28 28 29 33 32 27 28 28
49 49 50 51 50 50 50 50 51 52 51 51 52 52 51 51 51 49 41 38 38 33 30 31 30 39 40 40 40 27 24 31 29 30 19 17 11 19 8 10 14 22 25 20 18 24 26 30 33 32 31 31 32 32
48 48 49 50 49 50 49 49 50 50 50 50 50 50 50 50 50 49 41 42 39 34 24 26 34 34 40 40 38 38 35 33 32 30 19 14 11 26 16 21 19 23 23 19 19 27 28 29 30 32 34 31 32 31
47 47 48 48 49 49 49 48 49 49 48 48 49 49 49 49 49 47 43 42 41 33 25 20 27 33 36 37 37 36 34 30 25 21 15 14 20 23 19 26 18 27 28 23 20 32 31 32 33 33 31 31 31 31
46 46 47 48 48 48 49 49 49 48 48 48 47 48 48 48 49 41 33 41 43 41 31 20 29 25 32 34 33 32 34 29 26 29 21 23 29 29 21 19 29 33 31 33 31 36 32 34 33 33 31 31 31 29
46 46 47 47 48 48 48 48 49 48 48 48 48 47 48 48 43 34 33 38 44 41 31 25 22 24 29 29 25 29 31 27 32 29 26 25 26 32 23 17 31 30 31 33 33 31 28 31 30 32 31 32 26 22
45 45 46 47 47 47 47 47 47 47 48 48 48 48 48 48 45 38 40 43 44 35 32 25 21 20 29 26 27 30 30 31 30 29 26 25 28 27 21 28 31 32 33 31 31 32 34 35 26 27 22 19 16 18
44 44 43 46 46 46 46 47 47 46 47 47 48 47 38 36 33 35 45 46 42 34 27 26 14 11 28 28 29 28 31 24 30 26 25 28 21 20 25 29 30 31 30 31 26 20 20 23 27 19 16 13 15 15
43 41 43 45 45 45 45 43 43 45 47 46 38 33 29 33 42 43 36 32 31 31 31 21 15 11 24 22 22 24 26 23 18 22 26 23 22 31 31 27 29 31 31 24 20 20 8 11 15 14 14 13 13 13
42 41 42 44 44 44 44 44 44 45 44 35 31 30 34 42 34 31 26 26 27 23 26 18 18 15 22 17 20 27 21 22 16 18 18 13 14 28 32 30 32 30 25 21 19 14 12 13 13 12 9 7 6 4
40 40 41 43 44 44 45 45 44 37 34 34 34 35 34 31 28 22 22 19 22 14 12 21 15 22 18 22 20 22 17 18 14 12 12 7 23 28 24 28 30 18 16 8 7 9 9 9 7 7 3 0 -2 -2
37 40 43 44 44 44 44 44 45 41 39 33 29 25 25 23 18 17 13 9 10 9 18 16 17 21 24 25 21 21 17 15 17 15 11 12 24 17 21 10 3 3 3 2 0 0 -0 -2 -3 -5 -5 -7 -7 -9
41 41 41 41 42 43 44 44 43 37 31 25 21 17 18 15 12 15 7 9 16 14 15 15 19 18 21 21 23 17 19 17 13 11 6 21 14 16 5 0 1 -1 -1 -1 -4 -4 -5 -6 -8 -9 -10 -13 -12 -13
39 40 40 40 41 41 41 41 40 35 28 21 21 14 17 6 -0 -3 -3 7 11 12 22 17 15 23 17 19 21 18 11 11 11 7 9 6 2 3 -1 -4 -3 -5 -6 -9 -11 -9 -8 -9 -11 -17 -22 -22 -20 -20
38 36 32 38 39 40 41 38 34 32 27 23 17 11 0 3 -0 -2 -3 5 10 18 20 21 19 19 17 18 15 13 9 6 9 4 -4 -0 1 -0 -2 -3 -5 -5 -7 -10 -12 -12 -12 -13 -14 -18 -26 -26 -24 -23
33 17 35 36 37 37 36 30 29 24 22 20 9 -13 -4 -0 6 2 4 10 17 20 17 18 15 14 20 16 13 10 5 2 -2 -1 -4 -3 -3 -5 -6 -7 -7 -9 -12 -10 -13 -14 -16 -20 -27 -23 -17 -19 -25 -25
18 23 35 34 30 27 19 16 21 17 10 4 1 -7 -8 -10 -3 -0 7 11 16 21 19 17 19 15 14 11 7 4 -2 -7 -6 -10 -9 -10 -12 -9 -8 -9 -7 -8 -12 -13 -13 -19 -19 -19 -19 -18 -22 -24 -25 -24
20 26 32 31 28 16 12 9 12 9 3 -6 3 3 -3 -7 -2 -0 0 7 11 12 12 12 12 13 9 -0 -2 -2 -3 -4 -8 -7 -10 -8 -7 -8 -9 -10 -11 -13 -15 -17 -16 -14 -18 -19 -18 -20 -21 -22 -20 -22
31 31 30 26 25 15 9 6 7 8 2 -0 -2 -1 1 -0 -3 -7 -5 3 9 10 10 4 -8 -11 -9 -9 -8 -6 -4 -2 -5 -5 -7 -8 -8 -9 -10 -10 -9 -11 -13 -17 -17 -15 -20 -20 -22 -24 -25 -23 -22 -20
21 20 24 17 11 8 5 3 -1 0 -0 -4 -2 3 1 2 -3 -7 -5 2 -1 -9 -8 -14 -13 -11 -8 -10 -10 -10 -7 -7 -3 -6 -7 -10 -10 -9 -11 -11 -12 -13 -12 -13 -14 -19 -21 -21 -21 -25 -25 -23 -25 -24
13 23 13 17 8 4 1 1 0 1 -0 -8 -1 -1 -6 -5 -9 -8 -3 -7 -12 -15 -16 -16 -15 -13 -11 -11 -12 -12 -11 -8 -8 -8 -6 -7 -10 -10 -10 -12 -13 -20 -23 -24 -26 -24 -25 -25 -26 -26 -25 -22 -19 -18
15 15 9 6 0 -5 -9 -2 -3 -2 -4 -5 -7 -4 -9 -13 -10 -3 -11 -15 -16 -13 -17 -16 -15 -14 -14 -12 -11 -9 -10 -8 -9 -9 -9 -11 -12 -14 -15 -23 -24 -22 -23 -23 -28 -27 -22 -18 -19 -19 -19 -17 -16 -13
7 -4 -5 -7 -6 -11 -11 -9 -5 -7 -7 -9 -8 -8 -11 -12 -10 -6 -17 -20 -14 -13 -15 -16 -14 -11 -9 -9 -11 -13 -13 -14 -15 -14 -14 -12 -15 -19 -23 -23 -28 -27 -24 -25 -24 -24 -23 -21 -15 -15 -12 -11 -11 -10
-1 -17 -12 -15 -13 -14 -16 -16 -12 -7 -11 -9 -8 -8 -11 -17 -10 -14 -16 -18 -14 -14 -14 -13 -11 -11 -13 -12 -11 -12 -15 -19 -15 -16 -18 -22 -27 -25 -23 -26 -26 -24 -26 -23 -22 -23 -20 -17 -13 -9 -10 -12 -12 -10
-21 -24 -21 -29 -20 -20 -20 -19 -19 -18 -14 -11 -15 -13 -17 -13 -15 -22 -19 -17 -18 -17 -17 -19 -20 -16 -12 -13 -12 -11 -15 -23 -24 -21 -22 -28 -26 -24 -25 -21 -20 -16 -22 -20 -19 -17 -12 -9 -10 -10 -9 -9 -7 -9
-21 -26 -26 -23 -22 -21 -16 -16 -15 -14 -18 -18 -20 -15 -10 -17 -21 -18 -19 -14 -16 -21 -22 -21 -23 -20 -19 -17 -16 -18 -19 -22 -18 -16 -20 -24 -22 -23 -18 -17 -16 -12 -15 -14 -13 -11 -9 -7 -8 -8 -8 -8 -9 -8
-29 -28 -25 -25 -25 -33 -31 -28 -24 -24 -22 -22 -19 -21 -20 -21 -24 -17 -15 -11 -13 -15 -16 -17 -17 -17 -16 -12 -11 -10 -9 -9 -11 -12 -13 -11 -12 -10 -12 -13 -9 0 -7 -9 -8 -10 -13 -11 -11 -11 -11 -10 -8 -8
-31 -29 -28 -25 -30 -29 -31 -30 -29 -27 -26 -27 -20 -19 -19 -14 -16 -17 -14 -12 -12 -13 -12 -11 -8 -10 -10 -8 -6 -7 -7 -7 -6 -8 -10 -10 -9 -9 -10 -11 -12 -12 -13 -18 -8 -3 -8 -10 -10 -9 -10 -10 -9 -15
-30 -36 -24 -23 -24 -26 -27 -30 -29 -28 -27 -27 -26 -19 -17 -15 -12 -9 -11 -12 -13 -13 -13 -11 -8 -8 -9 -9 -10 -8 -8 -7 -9 -11 -13 -12 -10 -8 -10 -11 -10 -10 -13 -18 -11 -9 -5 -9 -11 -16 -14 -16 -16 -16
-34 -33 -28 -25 -27 -30 -29 -31 -29 -28 -26 -24 -24 -21 -20 -19 -12 -6 -8 -8 -7 -7 -9 -10 -10 -10 -11 -11 -11 -11 -11 -8 -7 -8 -9 -10 -9 -10 -9 -9 -9 -13 -20 -20 -18 -18 -14 -15 -20 -19 -19 -18 -17 -16
-23 -26 -24 -24 -28 -35 -38 -30 -28 -27 -27 -24 -22 -20 -19 -17 -18 -13 -9 -8 -10 -11 -10 -10 -11 -11 -9 -8 -7 -8 -7 -8 -7 -8 -8 -6 -6 -5 -5 -7 -10 -14 -14 -14 -17 -17 -17 -18 -17 -17 -17 -17 -17 -19
-26 -26 -26 -23 -24 -24 -23 -24 -21 -20 -19 -20 -20 -20 -20 -17 -18 -13 -7 -8 -12 -13 -12 -12 -11 -8 -10 -10 -8 -8 -8 -8 -8 -3 -3 -2 -3 -3 -5 -5 -5 -10 -12 -15 -16 -18 -17 -18 -18 -18 -19 -19 -19 -19

GFSWCAN_sfc_temp_033.txt.gz
Temp
47 48 50 51 51 51 52 53 52 51 51 52 52 51 52 51 51 44 38 40 35 28 33 35 37 32 31 32 27 27 29 28 26 25 23 22 17 21 18 21 18 16 13 11 11 11 9 27 26 22 27 27 27 26
48 47 48 50 50 50 51 51 52 51 50 51 51 51 51 51 51 47 37 40 39 29 30 35 37 38 39 37 30 28 30 26 30 23 20 20 14 12 12 10 24 18 21 15 19 17 27 28 29 33 31 28 27 29
48 47 46 49 49 50 51 50 50 52 50 51 51 51 51 51 51 47 39 37 38 30 28 31 31 38 39 39 40 29 26 32 31 31 22 20 15 21 8 11 15 22 25 21 19 24 26 29 31 32 31 31 33 32
47 47 46 47 49 49 50 50 50 50 51 51 51 51 50 50 51 49 40 41 37 33 20 25 33 33 39 40 39 38 35 33 32 30 21 16 14 27 18 22 20 25 24 19 19 27 28 29 30 32 32 31 31 31
46 46 46 46 48 49 49 49 49 50 50 50 50 50 50 51 50 48 44 42 42 32 22 19 26 32 35 37 36 35 35 31 27 22 16 16 22 22 19 24 18 26 26 22 18 30 30 31 31 32 30 32 32 29
45 46 45 46 47 48 48 49 48 48 47 49 49 49 49 49 50 41 33 41 43 41 31 20 29 25 29 32 33 32 32 29 26 25 21 23 29 26 13 9 32 34 30 32 30 34 33 33 32 32 30 30 31 28
45 46 44 45 47 47 48 48 48 48 48 48 48 46 47 48 43 33 33 37 45 42 31 25 22 24 29 28 24 28 30 26 27 25 21 25 26 29 23 12 32 30 31 30 32 30 28 29 30 32 30 30 26 23
43 44 44 45 46 46 47 48 48 48 48 48 47 46 44 45 43 35 39 44 44 35 32 25 18 21 31 26 26 28 27 28 27 28 26 22 27 27 19 28 31 30 30 29 30 31 34 33 26 26 23 20 19 21
42 44 43 44 46 46 47 47 48 47 47 47 47 47 40 36 33 34 44 43 41 34 26 23 15 13 28 28 28 28 30 24 30 25 25 28 22 19 25 27 27 31 30 32 30 24 24 23 28 23 19 14 17 19
41 42 44 44 45 46 47 46 47 47 47 47 38 32 29 32 42 43 37 32 31 30 30 18 10 10 25 23 21 22 24 21 19 23 27 23 22 31 31 26 29 31 32 30 18 16 7 13 20 19 17 14 15 12
39 43 43 42 42 44 46 46 46 45 44 33 30 28 31 41 34 28 25 24 25 23 26 14 13 17 24 18 15 26 20 20 15 15 20 18 13 29 31 28 32 30 27 22 26 28 20 19 20 17 10 9 8 6
41 42 43 42 42 44 45 44 42 36 33 34 33 35 34 31 25 22 22 19 21 14 14 19 14 18 15 19 16 22 18 19 14 13 15 8 22 30 22 27 30 31 23 19 12 16 11 12 9 10 6 2 -1 -1
39 40 40 40 41 42 43 43 41 41 38 33 29 25 26 24 19 15 15 13 12 8 17 17 15 19 20 23 20 19 15 13 15 15 13 13 27 16 21 21 8 2 5 5 2 3 2 -0 -1 -2 -4 -4 -6 -9
38 41 42 43 44 44 44 44 42 40 32 25 22 17 18 15 15 17 5 8 13 11 13 13 18 18 20 19 22 16 19 16 12 11 7 18 9 4 4 -1 -0 -3 -2 1 -2 -2 -3 -4 -7 -8 -9 -10 -9 -11
40 40 40 41 42 42 42 43 40 34 27 22 22 15 14 6 0 -5 -7 2 8 9 18 16 16 23 17 20 22 19 13 11 12 7 7 0 -1 -3 -2 -6 -8 -5 -6 -8 -9 -7 -7 -7 -10 -16 -21 -16 -14 -14
37 35 33 38 38 39 40 38 34 32 27 23 19 13 0 5 -0 0 -1 6 13 20 20 20 17 19 17 17 14 13 10 6 8 -2 -7 -5 -7 -8 -9 -10 -9 -7 -8 -11 -9 -10 -7 -7 -9 -14 -19 -21 -22 -18
32 16 35 36 36 35 34 26 27 24 19 18 11 -9 -5 4 9 6 6 12 17 18 13 18 16 15 20 15 14 14 9 0 -6 -8 -8 -10 -11 -13 -11 -11 -11 -10 -11 -10 -11 -11 -11 -15 -14 -11 -14 -19 -24 -24
19 22 34 35 26 25 13 16 19 16 9 6 5 -5 -6 -8 -4 -1 4 9 13 15 16 17 20 15 13 10 7 3 1 -2 -3 -4 -6 -9 -12 -9 -10 -13 -15 -12 -11 -12 -10 -11 -12 -10 -9 -11 -14 -22 -21 -21
20 24 31 32 26 10 5 8 12 8 2 -0 4 3 -1 -2 1 0 -1 7 10 12 15 15 13 11 1 -4 -7 -5 -5 -5 -6 -7 -9 -11 -8 -9 -9 -10 -10 -8 -9 -10 -10 -11 -13 -15 -12 -12 -15 -18 -18 -23
31 31 29 27 25 12 1 2 7 8 3 2 1 2 1 1 1 -1 1 5 11 9 1 -2 -11 -12 -10 -9 -9 -9 -7 -6 -7 -9 -8 -6 -7 -7 -8 -8 -10 -13 -11 -12 -11 -11 -11 -12 -16 -19 -22 -21 -20 -20
21 21 23 14 11 9 4 1 -3 -0 0 -1 -1 2 -1 1 -3 -2 -1 3 -2 -12 -10 -12 -11 -11 -9 -9 -9 -11 -7 -8 -7 -6 -5 -5 -7 -6 -9 -10 -9 -11 -12 -12 -10 -13 -14 -12 -18 -24 -24 -24 -27 -27
14 22 8 16 9 4 1 0 -3 -3 -3 -10 -5 -3 -6 -8 -10 -9 -3 -8 -12 -14 -15 -15 -15 -15 -15 -13 -13 -13 -11 -9 -5 -5 -5 -6 -9 -9 -10 -10 -9 -11 -13 -15 -15 -15 -18 -21 -25 -27 -26 -24 -22 -22
15 14 8 5 1 -2 -7 1 -4 -4 -6 -7 -8 -5 -10 -10 -8 -1 -11 -13 -14 -11 -14 -15 -15 -14 -16 -14 -13 -11 -11 -10 -9 -9 -9 -9 -9 -9 -10 -12 -13 -13 -15 -14 -18 -20 -22 -18 -20 -21 -22 -21 -21 -20
6 -5 -6 -8 -5 -8 -7 -6 -2 -3 -5 -7 -6 -9 -13 -13 -8 -8 -17 -17 -16 -13 -14 -15 -18 -16 -15 -13 -13 -11 -12 -11 -10 -11 -12 -11 -11 -16 -17 -18 -19 -21 -17 -22 -25 -25 -25 -23 -18 -20 -19 -20 -19 -15
-4 -17 -12 -15 -11 -10 -11 -12 -11 -7 -13 -11 -9 -12 -16 -12 -10 -15 -17 -17 -15 -19 -18 -18 -20 -18 -20 -16 -12 -12 -13 -13 -10 -10 -13 -14 -15 -16 -14 -16 -15 -15 -19 -23 -23 -25 -24 -25 -20 -16 -14 -15 -12 -9
-23 -23 -20 -22 -18 -16 -18 -16 -17 -18 -15 -14 -14 -11 -11 -9 -15 -22 -22 -18 -17 -17 -16 -18 -20 -19 -13 -13 -12 -10 -12 -15 -14 -10 -11 -14 -14 -15 -19 -21 -22 -17 -27 -26 -24 -22 -18 -11 -10 -11 -11 -8 -6 -7
-24 -25 -22 -19 -19 -18 -16 -16 -15 -17 -21 -21 -22 -14 -11 -18 -21 -20 -16 -13 -15 -14 -15 -15 -20 -19 -18 -15 -12 -13 -15 -19 -17 -16 -20 -22 -23 -24 -20 -19 -17 -13 -15 -18 -17 -16 -13 -9 -8 -7 -7 -7 -7 -7
-27 -26 -24 -22 -21 -24 -22 -21 -23 -25 -23 -23 -20 -22 -22 -23 -24 -17 -13 -10 -11 -12 -12 -12 -14 -15 -15 -13 -10 -8 -9 -8 -12 -13 -12 -12 -13 -11 -10 -11 -11 -1 -8 -8 -10 -11 -11 -12 -12 -11 -12 -11 -8 -7
-24 -26 -25 -22 -28 -28 -30 -29 -29 -27 -26 -27 -21 -20 -19 -15 -15 -16 -13 -11 -10 -12 -11 -11 -9 -10 -10 -9 -7 -7 -7 -8 -8 -10 -11 -10 -9 -8 -6 -7 -8 -9 -10 -13 -6 -1 -4 -7 -7 -8 -10 -9 -9 -12
-26 -30 -24 -25 -25 -28 -28 -30 -29 -28 -26 -26 -24 -15 -14 -13 -11 -8 -9 -9 -10 -11 -10 -10 -9 -9 -11 -11 -11 -9 -8 -7 -9 -12 -15 -14 -12 -8 -8 -8 -8 -8 -9 -12 -11 -12 -7 -10 -11 -17 -14 -15 -16 -14
-29 -27 -23 -22 -24 -25 -27 -30 -27 -26 -24 -22 -21 -17 -19 -18 -13 -7 -9 -8 -8 -9 -10 -11 -11 -11 -12 -12 -13 -14 -13 -10 -9 -9 -9 -9 -8 -8 -8 -7 -7 -7 -11 -16 -19 -23 -21 -22 -24 -25 -24 -23 -22 -18
-24 -30 -27 -25 -26 -27 -29 -27 -26 -25 -24 -22 -22 -20 -19 -17 -18 -13 -8 -9 -11 -13 -12 -12 -13 -13 -10 -10 -9 -9 -8 -9 -10 -10 -9 -8 -8 -6 -5 -6 -6 -9 -13 -12 -15 -19 -21 -23 -22 -23 -21 -21 -21 -21
-25 -24 -24 -21 -23 -23 -23 -24 -21 -20 -19 -20 -19 -19 -19 -17 -19 -13 -9 -7 -10 -12 -12 -11 -11 -10 -10 -10 -11 -10 -11 -11 -11 -6 -6 -6 -6 -6 -7 -9 -11 -13 -16 -18 -18 -19 -20 -21 -21 -22 -22 -23 -22 -21

GFSWCAN_sfc_temp_036.txt.gz
Temp
47 48 49 48 48 49 51 51 51 52 51 52 52 52 51 51 50 42 36 40 36 30 33 34 36 31 32 32 29 27 28 28 27 26 26 23 22 21 20 23 20 20 20 17 18 17 16 27 27 24 29 27 26 26
47 48 49 49 47 47 50 51 51 51 52 51 51 52 52 51 51 47 37 40 39 32 32 36 37 38 39 39 31 29 31 27 31 27 25 23 19 19 20 17 26 22 24 20 23 22 27 31 29 31 32 28 28 28
46 47 48 49 49 47 47 50 50 50 51 51 51 51 51 51 51 47 38 36 37 27 29 29 30 37 39 39 41 30 28 33 31 32 25 23 20 22 14 15 18 23 26 23 23 25 27 30 32 31 32 32 32 31
46 47 47 48 48 48 46 48 49 50 50 51 50 50 50 51 50 46 39 38 35 30 20 26 33 32 39 39 38 38 35 33 32 31 24 21 19 27 19 23 22 26 25 19 20 26 28 30 31 33 32 31 31 30
45 46 46 47 48 48 46 47 48 49 49 50 50 50 50 50 50 47 42 42 41 34 22 22 26 32 35 36 36 35 35 31 26 23 20 18 24 23 20 24 18 26 25 22 19 30 30 31 34 34 31 31 31 29
44 45 46 46 47 47 47 46 48 49 48 49 49 50 50 50 50 42 33 40 43 40 27 18 28 24 30 32 32 32 32 30 26 24 20 24 29 25 12 10 28 29 31 33 30 32 32 34 33 31 30 30 30 28
43 45 45 45 46 46 47 47 48 48 48 48 49 49 49 49 42 35 32 38 45 42 31 20 16 25 29 27 25 28 29 27 27 23 18 25 26 26 14 13 33 31 31 30 33 31 28 29 31 31 30 30 26 23
41 42 44 45 46 46 46 47 48 48 48 47 47 47 45 44 44 37 40 44 44 34 32 25 13 23 30 25 25 27 25 23 23 24 26 21 27 26 16 27 29 31 30 29 30 31 35 30 27 27 23 20 18 21
42 42 41 43 45 44 45 47 47 48 47 47 46 45 40 35 32 33 43 44 40 34 27 25 17 15 28 27 27 26 30 23 29 23 23 27 22 18 25 28 27 29 27 29 25 24 23 24 28 24 20 14 18 21
43 42 42 43 44 44 45 46 46 47 47 47 41 32 28 33 42 42 35 31 31 30 30 23 5 13 26 22 22 21 22 20 20 22 26 23 17 29 29 26 28 30 29 25 18 17 9 13 20 21 19 20 22 16
41 40 40 42 43 41 44 44 46 47 46 34 30 27 32 42 33 28 26 23 26 22 27 19 13 16 22 15 14 26 21 23 16 15 17 13 10 30 31 28 30 30 29 25 29 29 21 21 22 20 16 13 11 8
38 39 42 44 45 44 44 45 46 39 32 34 33 36 34 29 24 22 21 22 18 16 14 20 15 16 16 22 21 23 20 19 7 12 15 5 20 24 22 28 30 26 20 19 15 20 12 13 9 10 8 5 1 0
40 40 40 42 45 43 43 45 41 40 36 33 29 27 26 23 17 17 15 10 14 6 17 13 15 18 18 22 19 18 15 15 16 16 14 14 21 10 6 8 12 5 5 6 3 4 4 1 -0 -1 -2 -3 -4 -7
38 39 39 38 41 44 43 42 41 38 32 25 23 18 16 15 15 17 6 5 9 8 16 10 18 17 13 14 19 11 14 13 9 9 6 5 -2 -2 -1 -1 -5 -0 -4 0 -3 -2 -2 -3 -6 -7 -7 -7 -6 -9
39 39 39 40 41 40 40 40 39 32 24 21 21 14 8 2 -4 -4 -3 -0 5 4 14 13 12 22 15 18 21 16 13 11 7 5 0 -6 -5 -7 -6 -7 -8 -9 -9 -9 -11 -9 -7 -8 -9 -13 -14 -11 -11 -12
37 35 34 38 39 40 39 36 33 30 26 20 16 10 1 4 1 -0 -2 5 12 18 16 18 13 17 16 17 15 13 12 6 5 -6 -7 -7 -10 -11 -13 -13 -13 -15 -15 -13 -10 -7 -8 -9 -10 -15 -17 -17 -14 -11
32 19 36 37 37 34 33 25 25 20 17 16 4 -8 -7 -1 2 -1 1 9 17 19 18 20 16 13 18 14 13 12 10 5 -1 -2 -5 -7 -8 -10 -12 -15 -16 -18 -16 -16 -16 -14 -16 -15 -15 -12 -12 -15 -12 -15
20 23 34 35 26 22 11 15 16 13 5 4 4 -3 -9 -7 -5 -1 5 10 16 18 18 17 19 14 13 11 8 -2 -2 -1 -1 -3 -5 -7 -10 -13 -12 -15 -12 -11 -14 -15 -18 -18 -15 -10 -7 -7 -8 -11 -10 -12
21 25 31 32 24 6 5 5 12 7 1 -1 4 4 2 -3 1 3 4 10 11 12 15 13 14 7 -2 -6 -8 -6 -7 -8 -7 -5 -7 -11 -10 -15 -13 -11 -11 -12 -12 -14 -12 -9 -9 -8 -8 -10 -10 -9 -9 -12
31 30 29 27 23 4 -2 -1 2 8 2 1 1 3 3 1 3 3 4 6 6 3 -8 -9 -14 -14 -12 -10 -9 -10 -9 -7 -9 -10 -9 -7 -6 -7 -9 -8 -10 -11 -10 -12 -11 -10 -10 -9 -10 -10 -12 -12 -13 -17
21 21 23 13 10 5 -3 -2 -5 -3 1 0 0 2 1 2 -2 -3 -3 0 -6 -13 -13 -14 -14 -13 -11 -11 -8 -11 -9 -9 -11 -11 -12 -7 -6 -6 -7 -8 -8 -8 -8 -9 -9 -9 -7 -8 -10 -14 -14 -19 -23 -24
14 21 6 15 8 5 2 0 -5 -3 -3 -7 -1 -1 -6 -8 -9 -8 -3 -11 -13 -13 -14 -14 -14 -14 -13 -12 -11 -11 -11 -11 -9 -7 -6 -6 -7 -6 -7 -8 -6 -8 -8 -9 -10 -13 -14 -13 -15 -20 -23 -22 -21 -22
14 14 7 5 3 1 -4 1 -4 -3 -5 -6 -4 -3 -7 -7 -6 -1 -12 -13 -15 -12 -15 -16 -14 -13 -14 -12 -11 -11 -12 -13 -16 -13 -11 -10 -9 -8 -9 -10 -10 -12 -11 -12 -14 -15 -19 -16 -20 -21 -23 -22 -23 -22
6 -6 -7 -8 -6 -9 -6 -6 -2 -3 -4 -8 -7 -10 -13 -12 -6 -11 -19 -19 -14 -11 -14 -15 -16 -14 -12 -14 -15 -14 -14 -15 -12 -12 -12 -8 -9 -11 -11 -12 -12 -14 -16 -16 -17 -22 -23 -23 -17 -18 -19 -22 -25 -23
-7 -19 -14 -17 -12 -14 -15 -13 -12 -9 -12 -12 -12 -12 -13 -14 -14 -18 -18 -18 -16 -16 -15 -16 -16 -15 -18 -17 -14 -14 -15 -14 -11 -11 -11 -11 -10 -9 -9 -11 -12 -16 -17 -19 -19 -19 -19 -21 -19 -21 -20 -23 -22 -21
-25 -23 -22 -24 -21 -19 -17 -16 -18 -19 -15 -16 -18 -14 -15 -13 -19 -23 -21 -18 -18 -17 -16 -18 -20 -18 -15 -14 -15 -13 -12 -13 -13 -10 -11 -12 -10 -10 -12 -12 -12 -10 -16 -20 -20 -21 -22 -17 -18 -18 -18 -16 -11 -12
-24 -25 -21 -16 -19 -18 -16 -15 -15 -18 -23 -23 -25 -16 -13 -20 -23 -21 -15 -13 -15 -14 -12 -12 -16 -16 -16 -15 -12 -10 -10 -14 -15 -14 -15 -15 -15 -15 -13 -14 -16 -13 -16 -20 -22 -21 -19 -18 -16 -14 -13 -12 -13 -14
-24 -25 -25 -22 -22 -21 -22 -23 -25 -27 -25 -25 -21 -23 -24 -24 -26 -19 -14 -10 -11 -11 -10 -10 -12 -14 -14 -11 -8 -8 -8 -7 -11 -11 -11 -10 -11 -11 -10 -10 -8 -1 -8 -10 -9 -9 -11 -12 -12 -12 -13 -14 -14 -10
-24 -24 -24 -22 -23 -25 -30 -28 -28 -26 -26 -27 -21 -21 -21 -16 -16 -17 -12 -10 -9 -8 -11 -11 -10 -7 -8 -8 -7 -8 -8 -10 -12 -16 -16 -16 -14 -12 -7 -8 -8 -8 -8 -9 -5 -2 -1 -2 -5 -8 -12 -13 -14 -16
-26 -28 -25 -25 -27 -29 -28 -30 -29 -27 -26 -24 -22 -14 -14 -13 -11 -7 -9 -9 -11 -12 -11 -11 -11 -12 -13 -13 -13 -12 -12 -11 -11 -14 -19 -18 -15 -10 -9 -9 -9 -8 -9 -15 -11 -12 -8 -13 -14 -20 -21 -21 -23 -23
-28 -26 -25 -25 -26 -27 -28 -28 -26 -24 -21 -18 -17 -17 -20 -17 -13 -9 -10 -10 -11 -11 -12 -14 -14 -13 -14 -15 -16 -16 -16 -13 -11 -13 -12 -12 -11 -11 -10 -9 -7 -13 -21 -21 -21 -24 -21 -23 -25 -24 -23 -23 -23 -21
-24 -30 -28 -28 -27 -26 -28 -26 -28 -25 -22 -20 -21 -19 -19 -18 -20 -17 -11 -11 -14 -15 -13 -15 -16 -16 -13 -14 -20 -21 -13 -15 -15 -16 -16 -14 -14 -13 -11 -10 -13 -16 -18 -19 -20 -23 -23 -25 -24 -23 -23 -25 -25 -25
-24 -22 -22 -21 -23 -23 -24 -25 -22 -22 -21 -21 -20 -20 -20 -17 -20 -15 -11 -10 -14 -17 -18 -19 -17 -15 -18 -23 -21 -24 -21 -25 -22 -12 -11 -9 -9 -9 -11 -12 -17 -21 -22 -22 -21 -21 -23 -24 -24 -25 -25 -26 -26 -25

GFSWCAN_sfc_temp_042.txt.gz
Temp
47 47 48 48 48 48 49 50 49 48 49 50 50 51 52 51 50 44 41 44 39 34 35 34 37 35 33 35 31 31 31 30 30 29 29 28 27 27 28 28 28 29 27 27 27 26 24 35 33 33 37 34 35 35
47 47 47 47 47 47 48 49 50 48 48 49 50 50 51 51 49 45 38 42 41 35 34 37 39 39 38 40 34 32 32 31 35 32 31 28 25 24 27 25 29 28 34 30 32 32 31 37 35 38 38 37 35 37
46 46 46 47 47 47 48 48 49 49 47 49 49 50 50 51 49 46 38 39 38 33 33 33 34 39 41 41 43 34 33 36 34 34 31 29 25 27 24 26 26 29 32 31 31 30 31 34 33 36 37 37 37 38
45 45 45 45 46 47 47 48 48 49 49 49 49 49 50 50 50 46 39 41 38 33 29 31 36 36 40 41 41 41 36 35 34 34 31 30 27 29 27 29 29 30 31 26 26 30 32 34 35 36 37 37 36 35
44 44 45 45 45 45 47 48 48 49 49 49 49 49 49 50 50 46 42 42 42 38 29 28 30 34 36 39 38 38 37 33 31 29 28 27 29 29 27 29 27 31 29 29 28 35 36 37 40 38 36 36 35 34
44 44 44 44 44 45 46 46 47 47 48 49 48 49 48 49 50 41 33 39 43 42 32 27 30 29 33 36 36 35 36 35 34 31 29 30 32 31 26 24 32 34 35 38 37 38 37 38 39 38 37 36 35 33
43 43 43 44 45 45 45 46 47 47 48 49 48 48 46 49 45 34 34 40 45 43 32 26 25 29 31 31 31 32 34 32 34 30 28 30 30 32 25 23 31 33 35 36 37 36 34 35 37 37 35 36 31 29
43 43 44 45 45 45 44 45 46 47 47 48 48 48 46 49 47 37 41 45 45 35 33 22 21 25 31 28 27 31 30 30 30 28 28 27 29 28 23 29 32 34 35 34 34 36 38 36 33 30 28 27 25 27
43 44 44 44 44 45 42 42 46 46 47 48 47 46 43 40 32 34 45 47 40 36 29 24 20 20 30 29 30 30 31 25 29 25 28 29 23 21 29 30 31 32 31 34 32 28 26 27 28 26 25 22 26 28
43 43 42 43 42 43 44 43 43 46 46 47 42 32 30 33 41 44 36 31 31 31 31 24 20 21 29 28 25 26 27 24 21 24 28 25 23 31 31 31 29 30 31 28 24 23 19 22 25 25 25 28 28 28
40 40 40 38 41 42 43 43 43 45 45 37 31 29 35 42 34 31 27 27 27 24 27 20 21 22 28 24 23 27 23 25 18 21 23 20 20 24 13 16 16 17 17 21 24 27 27 29 28 27 24 23 23 21
41 39 38 43 43 43 43 43 44 40 34 34 34 35 33 30 27 24 23 24 24 21 19 18 19 24 24 29 26 25 22 22 16 22 21 16 21 8 5 4 6 6 5 9 11 14 17 18 15 17 15 14 11 9
40 39 38 42 43 43 43 44 44 43 39 33 31 29 27 25 19 18 14 16 18 17 19 20 21 24 24 27 24 24 19 18 20 18 17 19 7 4 -1 -1 -1 1 1 3 5 7 7 5 4 4 4 2 3 -0
39 39 38 39 39 43 43 44 43 39 32 27 24 18 20 18 20 19 18 19 19 20 22 25 20 24 23 22 23 18 17 19 15 13 14 6 -0 -4 -4 -4 -8 -7 -6 -3 -3 -0 -1 -2 -4 -4 -4 -2 -1 -3
38 38 38 37 37 39 42 44 39 32 28 23 22 15 17 7 5 2 1 12 13 23 24 21 21 25 20 21 22 17 13 13 15 13 6 1 -3 -5 -6 -8 -10 -10 -10 -7 -6 -5 -5 -6 -7 -9 -9 -6 -5 -6
36 33 33 38 37 35 36 34 30 29 19 17 11 12 7 14 10 10 10 13 14 20 20 22 19 19 18 20 17 15 13 11 10 2 -0 -1 -6 -8 -9 -10 -10 -10 -11 -10 -9 -7 -7 -8 -9 -10 -9 -9 -8 -6
31 24 35 36 34 32 30 26 22 13 11 11 4 1 1 8 7 6 7 12 18 20 17 16 10 13 21 15 9 4 8 -0 -0 -2 -2 -4 -7 -8 -8 -8 -11 -11 -11 -11 -11 -11 -11 -11 -11 -6 -8 -9 -8 -8
19 24 34 34 28 25 17 15 14 10 3 3 4 0 2 2 5 5 7 11 18 16 14 13 19 12 6 4 1 -3 -5 -3 -1 -3 -3 -5 -7 -10 -11 -11 -12 -12 -11 -12 -11 -11 -11 -9 -8 -8 -9 -8 -6 -6
26 28 32 30 24 14 13 9 9 2 -0 2 5 5 3 3 5 3 4 6 8 5 8 5 -8 -10 -11 -10 -10 -8 -8 -8 -7 -5 -4 -6 -7 -9 -9 -10 -10 -10 -11 -11 -8 -8 -8 -9 -6 -4 -3 -2 -4 -4
30 29 29 25 21 13 7 3 7 5 0 1 3 2 2 2 3 1 -3 -1 -2 -6 -14 -16 -17 -16 -13 -11 -10 -9 -8 -7 -8 -8 -5 -5 -5 -9 -10 -9 -8 -8 -7 -7 -6 -5 -5 -5 -5 -5 -4 -3 -3 -5
20 20 21 11 4 2 -1 -0 -1 1 2 0 2 3 1 1 -5 -6 -8 -5 -10 -15 -16 -14 -14 -12 -10 -10 -8 -9 -8 -9 -9 -10 -9 -8 -5 -6 -7 -6 -6 -6 -5 -5 -5 -5 -5 -6 -6 -5 -5 -5 -6 -6
13 20 6 11 4 -1 -2 2 0 0 -1 -3 0 -1 -6 -7 -8 -10 -5 -13 -15 -15 -14 -15 -14 -14 -13 -12 -11 -10 -10 -10 -9 -7 -6 -7 -8 -7 -7 -8 -6 -7 -8 -7 -5 -6 -7 -7 -7 -7 -6 -7 -9 -8
11 11 3 -1 -3 -5 -5 3 -4 -5 -2 -3 -2 -5 -8 -8 -6 -4 -14 -13 -14 -10 -12 -13 -13 -12 -13 -10 -10 -11 -12 -12 -11 -11 -10 -9 -9 -8 -8 -8 -7 -7 -7 -8 -7 -7 -7 -8 -7 -7 -8 -8 -9 -8
4 -9 -11 -13 -11 -11 -4 -7 -4 -7 -5 -7 -8 -12 -14 -12 -5 -13 -20 -17 -14 -11 -13 -14 -12 -10 -9 -9 -11 -12 -13 -10 -9 -9 -10 -9 -9 -10 -9 -9 -9 -10 -10 -9 -8 -8 -7 -8 -8 -8 -8 -10 -11 -12
-11 -21 -16 -22 -14 -14 -13 -13 -14 -14 -15 -14 -13 -13 -13 -9 -16 -19 -20 -18 -16 -15 -14 -14 -13 -13 -15 -13 -12 -11 -11 -12 -12 -12 -11 -10 -9 -8 -8 -9 -10 -11 -10 -9 -10 -11 -11 -10 -9 -9 -10 -10 -11 -10
-29 -24 -23 -24 -21 -20 -19 -19 -20 -20 -16 -18 -19 -14 -12 -17 -22 -26 -22 -18 -18 -16 -15 -16 -17 -16 -14 -13 -14 -12 -11 -10 -11 -12 -12 -12 -12 -12 -13 -14 -14 -11 -11 -14 -15 -15 -15 -13 -15 -16 -14 -10 -9 -9
-27 -27 -21 -15 -19 -20 -20 -19 -20 -24 -29 -27 -25 -20 -20 -28 -30 -23 -16 -13 -14 -13 -11 -12 -14 -14 -14 -12 -10 -9 -8 -10 -12 -11 -10 -10 -10 -10 -11 -14 -14 -11 -7 -9 -11 -13 -14 -14 -13 -12 -12 -10 -10 -10
-24 -24 -27 -22 -24 -23 -26 -26 -28 -29 -27 -25 -22 -27 -31 -31 -29 -19 -14 -10 -10 -9 -10 -10 -9 -10 -11 -11 -11 -11 -10 -9 -9 -10 -10 -10 -11 -10 -11 -11 -10 -3 -8 -8 -8 -7 -8 -8 -9 -11 -13 -13 -13 -10
-23 -23 -22 -24 -23 -25 -29 -28 -29 -26 -25 -27 -25 -24 -23 -19 -18 -18 -13 -10 -10 -11 -14 -15 -15 -13 -13 -13 -14 -15 -16 -16 -20 -26 -28 -24 -22 -18 -14 -14 -15 -13 -12 -14 -10 -7 -6 -6 -7 -10 -16 -17 -16 -17
-25 -26 -25 -27 -28 -29 -26 -29 -26 -24 -24 -23 -20 -16 -17 -17 -14 -11 -12 -13 -15 -17 -17 -19 -21 -23 -23 -24 -24 -23 -26 -24 -26 -26 -30 -28 -26 -20 -19 -18 -18 -17 -14 -20 -17 -18 -13 -16 -17 -21 -21 -21 -20 -20
-27 -29 -27 -26 -26 -25 -25 -24 -23 -18 -16 -16 -16 -18 -21 -19 -15 -13 -14 -20 -23 -24 -26 -26 -26 -33 -32 -28 -31 -32 -29 -29 -30 -29 -30 -28 -25 -24 -22 -19 -16 -16 -22 -24 -23 -25 -22 -22 -23 -25 -25 -25 -25 -24
-23 -29 -25 -25 -25 -22 -22 -25 -25 -22 -21 -23 -22 -24 -23 -21 -24 -20 -16 -24 -28 -29 -26 -33 -35 -26 -29 -33 -33 -32 -26 -24 -28 -23 -26 -21 -21 -20 -17 -16 -16 -22 -23 -22 -23 -23 -23 -26 -25 -25 -25 -26 -27 -27
-26 -23 -26 -24 -24 -24 -24 -24 -21 -23 -23 -24 -24 -25 -24 -23 -25 -22 -17 -25 -25 -28 -30 -30 -30 -29 -29 -29 -29 -27 -24 -29 -31 -15 -17 -13 -12 -11 -11 -14 -18 -26 -25 -24 -23 -24 -25 -27 -27 -27 -27 -28 -28 -28

GFSWCAN_sfc_temp_045.txt.gz
Temp
47 48 48 48 48 48 48 49 49 50 50 49 49 48 50 51 51 45 43 47 41 35 39 37 38 35 34 34 31 31 32 31 31 30 32 30 32 32 31 35 31 30 28 29 30 28 27 40 36 37 40 38 38 42
47 47 47 47 48 48 48 48 48 49 50 49 49 49 49 50 51 47 39 44 43 37 37 40 40 38 38 38 34 32 32 32 35 32 32 31 28 29 31 28 32 29 36 33 34 33 33 38 36 39 40 38 38 40
46 46 46 47 47 47 47 47 48 48 49 49 48 49 49 49 50 47 42 41 40 35 36 36 36 39 40 39 42 34 33 35 35 36 34 32 29 32 27 29 31 32 35 33 31 28 31 34 35 37 39 40 40 40
44 45 45 46 46 46 46 47 47 48 48 48 48 48 49 49 48 47 40 42 42 38 32 34 40 38 41 41 39 39 37 35 35 34 32 31 30 31 30 31 32 33 33 30 26 30 31 30 33 38 39 38 37 37
43 44 45 45 45 45 45 46 46 47 48 48 48 48 49 49 48 46 46 44 47 40 33 33 33 38 39 41 40 39 36 34 34 31 31 30 29 30 30 31 30 33 32 30 29 34 34 34 39 41 37 37 36 36
43 44 43 44 45 45 45 45 46 46 47 48 48 49 49 49 48 40 32 41 45 47 33 29 35 31 37 40 39 38 35 34 33 32 29 29 33 32 29 28 34 37 38 41 36 40 40 40 42 41 38 37 36 35
43 43 43 43 44 44 45 45 45 46 46 47 48 49 49 49 44 34 34 40 47 46 33 27 27 31 35 36 35 35 36 34 33 30 29 31 31 34 29 26 35 36 37 37 37 36 36 37 38 37 36 36 33 30
43 43 43 44 44 44 45 46 46 45 45 46 47 48 49 49 46 38 42 44 46 35 33 28 23 27 32 31 30 35 33 34 33 31 31 30 31 31 25 32 35 36 36 35 36 36 37 37 34 32 30 29 26 28
42 43 44 44 44 45 45 45 46 44 45 46 47 48 44 39 33 36 46 46 42 37 30 28 23 22 31 31 32 32 35 28 32 29 30 31 26 24 29 32 33 34 33 34 33 29 28 29 30 28 27 25 26 28
42 43 43 43 43 43 43 44 44 44 43 46 42 33 30 33 41 44 37 33 31 32 32 29 31 24 31 31 28 29 31 27 22 28 30 27 26 25 21 20 20 20 20 25 26 26 24 24 26 26 27 28 28 27
42 39 39 41 42 40 41 43 43 43 41 37 32 31 35 42 34 32 28 28 29 26 30 26 29 24 31 27 26 31 27 27 21 25 25 23 23 18 14 14 14 14 15 16 16 20 23 25 27 27 24 24 22 20
37 41 40 39 39 43 44 43 43 40 34 35 35 35 32 32 29 26 25 26 26 23 22 25 27 30 28 34 29 27 25 25 20 26 24 20 20 8 6 6 6 6 5 7 10 11 13 14 12 15 16 15 12 11
40 40 39 39 40 43 44 44 44 44 40 34 32 29 28 27 20 20 17 19 19 23 23 25 24 26 27 31 28 27 21 20 25 21 21 22 10 6 1 1 0 2 2 4 5 6 7 5 4 3 6 5 6 3
39 39 39 38 38 42 44 44 45 41 33 30 25 20 22 20 22 24 25 25 25 27 25 28 25 27 27 26 26 21 21 22 18 16 18 11 2 -2 -1 -2 -5 -5 -4 -2 -1 1 1 0 -2 -2 -2 1 1 0
38 37 38 38 37 38 43 44 43 34 30 25 25 18 20 13 12 11 12 20 20 30 30 25 26 28 24 22 23 19 15 15 19 18 11 4 -1 -3 -4 -5 -7 -7 -7 -5 -3 -3 -3 -3 -4 -5 -5 -3 -2 -3
35 33 33 37 36 35 39 36 30 28 18 17 12 15 13 17 13 16 19 18 21 28 29 29 23 22 20 22 18 17 17 15 12 4 2 2 -4 -6 -7 -7 -8 -8 -7 -6 -6 -5 -5 -7 -7 -6 -6 -5 -4 -3
31 25 34 35 34 32 30 26 21 13 11 12 6 7 7 12 11 10 15 16 21 26 21 23 19 17 23 17 10 3 4 1 2 -0 -1 -4 -6 -8 -9 -8 -10 -9 -8 -7 -7 -7 -7 -6 -4 -3 -5 -6 -4 -5
25 29 33 33 31 27 17 17 15 11 5 6 7 3 6 5 8 7 9 11 20 21 22 16 20 9 4 8 1 -3 -3 -0 -0 -1 -2 -3 -5 -6 -6 -6 -8 -8 -7 -8 -7 -7 -6 -4 -3 -5 -5 -4 -5 -4
29 29 31 30 27 20 15 10 12 4 3 6 8 8 7 4 3 3 3 7 5 5 6 2 -7 -8 -10 -8 -7 -6 -6 -5 -5 -2 -3 -4 -6 -7 -6 -6 -6 -6 -8 -6 -4 -4 -4 -6 -3 -1 -0 1 -1 -0
29 29 28 26 25 18 10 6 13 8 3 3 7 5 4 2 3 0 -3 -1 -1 -5 -13 -14 -16 -14 -12 -10 -8 -8 -6 -5 -5 -3 -3 -3 -3 -4 -6 -5 -5 -4 -3 -3 -2 -2 -1 -2 -2 -1 -1 -1 -0 -2
22 21 21 18 10 8 5 5 4 5 6 3 4 6 2 2 -4 -5 -7 -4 -10 -14 -15 -13 -13 -11 -9 -8 -7 -7 -6 -7 -7 -7 -7 -5 -3 -3 -3 -3 -2 -2 -2 -2 -2 -3 -3 -4 -4 -3 -2 -3 -3 -3
14 20 11 13 9 7 5 6 4 4 4 2 3 2 -3 -5 -7 -9 -5 -12 -15 -14 -13 -13 -13 -12 -10 -10 -10 -9 -9 -7 -7 -5 -4 -5 -5 -5 -6 -5 -3 -5 -6 -5 -4 -5 -5 -5 -4 -4 -3 -4 -4 -4
12 12 6 2 2 1 -1 7 2 2 1 -0 1 -4 -6 -7 -6 -3 -14 -13 -13 -10 -10 -11 -11 -10 -10 -7 -7 -8 -8 -6 -8 -7 -7 -6 -6 -5 -5 -7 -6 -6 -6 -6 -5 -5 -5 -5 -4 -5 -4 -4 -4 -4
4 -7 -9 -10 -8 -9 0 -4 -0 -1 -1 -4 -6 -10 -11 -8 -5 -12 -18 -16 -13 -10 -11 -12 -10 -8 -7 -7 -9 -10 -10 -6 -6 -8 -8 -5 -7 -9 -7 -8 -8 -8 -8 -6 -5 -5 -5 -6 -6 -5 -5 -6 -6 -6
-11 -21 -15 -20 -12 -12 -11 -11 -13 -8 -12 -9 -10 -11 -11 -7 -15 -18 -19 -17 -14 -14 -13 -11 -10 -10 -12 -11 -10 -9 -8 -9 -9 -11 -10 -6 -6 -6 -7 -8 -9 -9 -9 -10 -11 -11 -10 -10 -9 -9 -9 -8 -9 -10
-27 -20 -20 -22 -19 -18 -17 -18 -19 -18 -14 -16 -15 -10 -10 -15 -20 -24 -20 -17 -15 -14 -13 -13 -13 -12 -12 -10 -12 -11 -10 -8 -7 -11 -11 -9 -9 -10 -11 -12 -11 -10 -6 -8 -11 -13 -12 -11 -11 -13 -11 -11 -11 -12
-26 -25 -17 -13 -18 -17 -19 -18 -18 -21 -25 -24 -22 -17 -17 -25 -26 -21 -14 -11 -12 -11 -9 -10 -10 -12 -13 -12 -10 -9 -7 -8 -9 -9 -8 -9 -10 -10 -12 -15 -16 -12 -8 -9 -10 -11 -11 -12 -12 -11 -12 -11 -11 -10
-21 -22 -26 -20 -22 -21 -25 -25 -27 -29 -26 -24 -20 -26 -27 -26 -24 -16 -13 -9 -9 -8 -10 -11 -11 -11 -13 -13 -13 -12 -12 -11 -8 -9 -9 -8 -10 -11 -13 -13 -12 -6 -11 -11 -11 -11 -11 -11 -11 -10 -12 -15 -15 -13
-21 -21 -19 -25 -23 -23 -27 -26 -25 -23 -22 -25 -23 -24 -23 -18 -15 -14 -11 -10 -9 -11 -15 -16 -16 -15 -16 -15 -16 -17 -16 -16 -19 -24 -25 -21 -19 -16 -15 -16 -15 -14 -14 -14 -10 -9 -9 -9 -9 -11 -14 -17 -16 -16
-23 -22 -23 -24 -26 -26 -22 -23 -21 -20 -20 -20 -16 -16 -17 -16 -14 -10 -12 -13 -15 -18 -19 -21 -23 -22 -25 -24 -23 -22 -21 -22 -22 -22 -25 -24 -22 -18 -19 -19 -18 -17 -16 -17 -17 -16 -13 -14 -15 -19 -19 -19 -20 -20
-22 -19 -22 -22 -22 -20 -20 -19 -15 -15 -14 -17 -16 -19 -21 -18 -14 -13 -14 -18 -21 -24 -23 -23 -24 -26 -26 -26 -28 -28 -25 -23 -28 -27 -27 -24 -23 -22 -21 -19 -17 -16 -16 -21 -21 -20 -20 -21 -22 -23 -23 -24 -25 -24
-22 -28 -25 -24 -21 -18 -19 -20 -20 -18 -19 -20 -20 -21 -22 -22 -26 -21 -15 -21 -24 -25 -24 -28 -30 -23 -24 -25 -26 -26 -24 -24 -24 -21 -24 -21 -20 -20 -18 -16 -15 -15 -20 -19 -20 -21 -22 -24 -24 -25 -25 -26 -26 -26
-26 -24 -26 -26 -26 -26 -26 -26 -24 -25 -24 -27 -25 -26 -27 -24 -26 -20 -15 -20 -21 -23 -24 -23 -22 -23 -25 -26 -24 -23 -22 -23 -26 -15 -15 -14 -13 -11 -11 -11 -15 -22 -23 -22 -22 -22 -24 -25 -26 -26 -27 -27 -27 -27

GFSWCAN_sfc_temp_048.txt.gz
Temp
47 47 47 47 48 48 48 49 49 49 49 50 50 50 50 48 47 47 43 46 40 33 37 37 39 35 34 35 35 32 33 32 31 30 32 31 32 30 30 32 28 28 27 27 29 28 27 33 33 34 33 33 32 34
46 46 47 47 47 48 48 48 48 49 49 49 50 50 50 49 47 47 39 45 43 36 35 39 41 40 40 39 35 33 33 32 35 32 31 32 28 28 30 26 31 29 33 31 33 32 32 33 32 35 36 33 34 34
46 46 46 46 47 47 48 48 48 48 48 49 49 50 49 50 49 46 41 40 38 32 34 32 31 37 40 39 41 33 32 34 33 34 33 32 28 31 27 28 26 29 32 30 30 29 30 32 34 35 36 36 35 34
44 45 45 45 46 46 47 47 47 47 47 48 48 49 49 49 49 48 41 41 40 35 30 28 38 34 40 40 39 38 37 35 34 33 32 30 29 30 28 29 27 29 32 27 24 28 29 31 32 33 36 36 35 34
44 44 44 44 45 45 45 46 46 46 46 46 47 48 48 48 49 46 43 42 45 37 29 27 29 33 37 38 37 37 36 33 32 30 30 29 29 28 26 29 27 30 30 29 27 31 33 33 36 35 34 35 34 33
43 43 44 44 44 44 45 45 45 45 45 46 47 47 48 48 49 41 32 39 44 44 30 23 31 30 31 36 35 35 34 33 33 32 29 29 30 29 26 25 31 33 35 37 33 35 35 35 35 34 33 33 34 33
42 43 43 43 44 44 44 44 44 45 45 46 46 47 47 48 43 34 33 38 45 43 32 24 24 31 32 30 28 32 34 32 32 29 27 27 28 31 26 21 32 32 34 34 35 35 32 33 33 34 34 34 30 28
42 42 43 43 44 43 44 45 45 45 45 45 45 46 47 48 46 37 41 44 44 34 32 27 22 25 31 27 22 29 29 29 29 28 26 25 27 28 22 30 32 32 33 33 33 32 32 32 29 27 26 25 23 25
42 42 43 43 44 45 44 45 45 45 46 46 45 46 41 38 32 34 44 45 43 35 28 23 18 20 29 29 27 25 30 21 27 22 26 26 21 18 21 26 23 21 24 24 26 25 25 25 25 23 22 20 22 23
42 42 42 43 44 43 43 44 44 45 45 45 39 32 29 33 44 44 37 32 31 31 31 27 22 20 30 28 24 23 24 17 11 20 27 16 13 19 17 15 15 15 15 17 22 22 20 19 22 22 22 21 22 21
42 42 41 40 40 41 42 43 43 43 44 35 31 29 33 43 35 32 28 28 28 26 29 26 20 23 29 20 19 27 16 17 14 14 14 9 9 16 13 11 11 11 11 11 12 15 15 15 17 18 18 15 14 14
40 38 39 40 41 41 42 43 44 39 33 34 34 35 33 31 29 25 25 27 25 22 21 20 23 23 23 27 20 18 15 20 10 18 12 7 11 5 4 4 4 3 1 3 5 6 8 8 6 8 6 5 4 5
37 38 40 40 40 40 41 43 45 44 41 33 31 29 27 26 21 20 17 19 18 21 22 21 20 23 21 26 19 24 10 11 23 11 9 5 6 0 -2 -2 -3 -2 -2 -1 -0 1 1 0 -1 -2 -1 -1 -1 -2
39 39 38 39 39 39 40 41 45 42 33 27 21 21 20 19 21 20 22 22 21 23 23 26 24 23 20 17 22 17 19 16 12 4 5 -1 -5 -9 -6 -6 -11 -8 -8 -5 -5 -4 -4 -4 -5 -6 -6 -5 -6 -6
37 37 36 36 38 38 38 43 42 34 28 25 25 18 18 13 11 8 12 18 21 30 28 24 24 25 19 21 22 18 14 11 9 6 -2 -4 -6 -7 -8 -10 -12 -11 -10 -9 -9 -9 -8 -7 -8 -9 -9 -9 -8 -7
35 33 30 37 36 35 36 40 30 26 16 16 9 13 13 14 13 13 18 20 25 30 27 26 23 21 20 20 17 15 14 5 -2 -9 -5 -4 -9 -12 -14 -12 -11 -11 -14 -14 -13 -12 -10 -10 -11 -13 -13 -10 -10 -9
31 21 34 35 35 31 31 25 20 13 11 11 5 7 6 10 7 5 9 10 15 22 16 23 18 17 22 15 5 -4 -6 -7 -4 -4 -5 -6 -10 -12 -13 -14 -15 -15 -16 -16 -17 -15 -15 -14 -13 -10 -10 -10 -8 -8
21 26 33 33 31 26 17 16 14 11 5 6 2 3 1 -1 2 2 3 6 10 18 15 9 13 1 -4 1 -7 -6 -4 -3 -2 -5 -6 -6 -10 -14 -14 -15 -15 -15 -15 -14 -15 -15 -14 -13 -9 -11 -13 -12 -11 -11
26 27 31 30 27 18 13 10 12 3 2 5 7 7 4 0 1 -1 -1 2 3 1 2 -3 -12 -12 -14 -11 -10 -10 -8 -8 -7 -4 -5 -7 -8 -12 -11 -13 -14 -15 -16 -17 -15 -13 -14 -14 -12 -9 -9 -9 -10 -10
29 28 28 27 25 16 8 6 14 7 1 4 6 2 1 -1 -1 -2 -5 -4 -3 -8 -17 -18 -19 -17 -14 -13 -10 -10 -8 -7 -7 -6 -6 -5 -4 -9 -9 -11 -11 -12 -11 -11 -8 -6 -8 -8 -6 -6 -6 -5 -7 -10
19 19 20 17 11 9 5 6 4 6 6 2 4 4 -0 -0 -7 -8 -9 -7 -13 -15 -17 -16 -16 -14 -12 -11 -9 -10 -9 -8 -8 -8 -8 -7 -5 -6 -9 -10 -10 -8 -7 -7 -8 -8 -10 -13 -13 -13 -12 -14 -13 -12
11 19 7 12 9 8 5 6 5 5 4 2 2 0 -5 -8 -10 -12 -7 -14 -16 -16 -15 -15 -15 -16 -13 -14 -12 -12 -11 -8 -7 -5 -5 -5 -10 -11 -11 -9 -9 -10 -10 -10 -11 -14 -16 -15 -16 -16 -17 -17 -13 -14
10 10 3 -1 0 -0 -2 7 2 2 -0 -1 -1 -6 -8 -10 -8 -4 -15 -14 -14 -11 -11 -13 -13 -11 -12 -10 -9 -10 -9 -7 -9 -9 -8 -8 -8 -8 -10 -11 -11 -14 -16 -14 -14 -15 -16 -10 -14 -15 -15 -14 -15 -15
3 -9 -11 -13 -11 -13 -1 -5 -1 -2 -2 -5 -7 -12 -12 -10 -6 -14 -20 -18 -14 -11 -13 -12 -10 -11 -9 -9 -11 -12 -11 -7 -9 -10 -9 -9 -12 -13 -16 -16 -18 -19 -19 -17 -16 -18 -16 -18 -13 -14 -16 -19 -19 -17
-16 -24 -20 -26 -15 -15 -13 -13 -12 -8 -12 -9 -11 -13 -13 -9 -17 -19 -21 -20 -16 -15 -14 -13 -11 -11 -13 -12 -11 -11 -9 -10 -11 -15 -13 -13 -16 -16 -18 -19 -19 -18 -21 -21 -20 -23 -22 -23 -22 -23 -22 -24 -23 -22
-29 -21 -25 -25 -23 -22 -20 -21 -20 -19 -15 -16 -15 -11 -12 -16 -21 -25 -21 -18 -17 -15 -15 -15 -15 -14 -15 -13 -15 -14 -13 -10 -15 -19 -19 -19 -20 -23 -27 -25 -25 -23 -15 -22 -23 -25 -23 -23 -25 -24 -23 -23 -20 -23
-29 -26 -17 -15 -20 -20 -22 -21 -20 -23 -26 -25 -22 -18 -18 -25 -26 -22 -15 -12 -14 -14 -12 -13 -13 -15 -17 -17 -16 -16 -15 -14 -19 -20 -20 -23 -23 -24 -23 -27 -27 -23 -19 -22 -24 -26 -25 -23 -20 -20 -18 -24 -26 -26
-21 -22 -27 -21 -24 -24 -31 -29 -30 -31 -29 -24 -22 -27 -27 -28 -27 -19 -14 -11 -13 -14 -17 -21 -22 -25 -28 -27 -28 -26 -28 -23 -21 -20 -19 -19 -24 -25 -26 -26 -25 -9 -18 -21 -20 -18 -24 -22 -21 -17 -18 -20 -20 -23
-21 -21 -20 -25 -26 -26 -28 -28 -28 -25 -23 -31 -29 -28 -27 -21 -20 -19 -15 -13 -17 -21 -28 -32 -29 -30 -31 -31 -31 -32 -32 -30 -29 -31 -33 -32 -30 -26 -27 -28 -27 -24 -23 -28 -15 -11 -12 -11 -12 -15 -19 -23 -20 -21
-23 -20 -25 -24 -29 -28 -24 -24 -26 -23 -22 -23 -19 -18 -20 -21 -20 -19 -25 -28 -29 -32 -33 -35 -36 -37 -36 -37 -34 -31 -35 -35 -33 -31 -35 -34 -32 -29 -28 -27 -26 -25 -25 -30 -21 -22 -16 -17 -20 -28 -27 -26 -25 -25
-25 -23 -26 -24 -26 -25 -24 -22 -26 -21 -28 -28 -28 -29 -31 -26 -25 -25 -26 -32 -35 -37 -35 -35 -36 -39 -36 -36 -39 -38 -32 -34 -35 -35 -34 -33 -31 -29 -28 -25 -24 -25 -26 -27 -28 -29 -23 -23 -25 -29 -28 -28 -28 -27
-30 -36 -31 -29 -27 -25 -27 -31 -32 -30 -31 -33 -31 -34 -32 -33 -34 -31 -26 -32 -35 -34 -31 -36 -39 -32 -33 -34 -35 -33 -25 -26 -29 -26 -29 -26 -25 -25 -23 -22 -20 -19 -21 -23 -25 -25 -25 -28 -27 -27 -27 -28 -28 -28
-34 -34 -36 -36 -33 -34 -35 -34 -33 -34 -34 -38 -35 -38 -37 -33 -30 -26 -23 -29 -28 -29 -31 -30 -30 -32 -31 -31 -29 -30 -25 -29 -30 -16 -13 -13 -14 -14 -14 -16 -17 -18 -22 -24 -25 -25 -26 -27 -27 -27 -28 -28 -28 -28